Powrót do katalogu

ORBCOMM FM 33

AktywnyŁącznośćLEO
NORAD 25983·PAYLOAD·🇺🇸 United States

Wystrzelony Dec 4, 1999 z Cape Canaveral Space Force Station

Loading…

Następne Przeloty (najbliższe 24 godziny)

TLE

ŚwieżeSource: Space-Track

Epoka: Sep 14, 2026, 14:19 UTC

1 25983U 99065D   26257.59721741  .00000580  00000-0  22245-3 0  9995
2 25983  45.0302 356.3870 0010097 195.0023 165.0528 14.41101500401595

Śledź ORBCOMM FM 33 w czasie rzeczywistym z AllMySat

Download on the App Store